Andover, NJ

7:52 AM EST on December 16, 2019 (GMT -0500)
Andover

Weather History for K12N - September, 2019

Change the Weather History Date:

Friday, September 13, 2019

  Actual Average (WUND) Record (WUND)
Temperature  
Mean Temperature 62 °F -  
Max Temperature 70 °F - - (-1)
Min Temperature 54 °F - - (-1)
Degree Days  
Heating Degree Days 4    
Growing Degree Days 12 (Base 50)    
Moisture  
Dew Point 52 °F    
Average Humidity 72    
Maximum Humidity 97    
Minimum Humidity 52    
Precipitation  
Precipitation 0.00 in - - ()
Sea Level Pressure  
Sea Level Pressure 30.41 in    
Wind  
Wind Speed 4 mph (NE)    
Max Wind Speed 8 mph    
Max Gust Speed -    
Averages and records for this station are not official NWS values.
T = Trace of Precipitation, MM = Missing Value Source: NWS Daily Summary

Daily Weather History Graph

Daily Weather History Graph

Search for Another Location

Airport or City:

Astronomy

Sep. 13, 2019 Rise Set
Actual Time 6:37 AM EDT 7:11 PM EDT
Civil Twilight 6:09 AM EDT 7:39 PM EDT
Nautical Twilight 5:36 AM EDT 8:12 PM EDT
Astronomical Twilight 5:03 AM EDT 8:45 PM EDT
Moon 7:24 PM EDT (9/13) 5:50 AM EDT (9/13)
Length of Visible Light 13h 29m
Length of Day
12h 34m
Full, 100% of the Moon is Illuminated
Sep 13
Full
Sep 14
Full
Sep 21
Last Quarter
Sep 28
New
Oct 5
First Quarter

Hourly Weather History & Observations

Time (EDT) Temp. Dew Point Humidity Pressure Visibility Wind Dir Wind Speed Gust Speed Precip Events Conditions
12:54 AM 61.0 °F 57.0 °F 87% 30.30 in - Variable 3.5 mph - N/A   Unknown
1:54 AM 61.0 °F 57.0 °F 87% 30.32 in - NNE 3.5 mph - N/A   Unknown
2:54 AM 60.1 °F 55.9 °F 86% 30.32 in - NNE 4.6 mph - N/A   Unknown
3:54 AM 59.0 °F 55.0 °F 87% 30.33 in - Variable 4.6 mph - N/A   Unknown
4:54 AM 57.9 °F 54.0 °F 87% 30.36 in - NNE 4.6 mph - N/A   Unknown
5:54 AM 57.0 °F 54.0 °F 89% 30.37 in - Variable 4.6 mph - N/A   Unknown
6:54 AM 54.0 °F 53.1 °F 97% 30.41 in - NNE 4.6 mph - N/A   Unknown
7:54 AM 55.9 °F 53.1 °F 90% 30.44 in - NE 5.8 mph - N/A   Unknown
8:54 AM 59.0 °F 53.1 °F 81% 30.45 in - NE 5.8 mph - N/A   Unknown
10:54 AM 64.9 °F 48.9 °F 56% 30.46 in - Variable 3.5 mph - N/A   Unknown
11:54 AM 66.9 °F 50.0 °F 54% 30.46 in - Variable 5.8 mph - N/A   Unknown
12:54 PM 68.0 °F 50.0 °F 52% 30.45 in - ESE 8.1 mph - N/A   Unknown
1:54 PM 69.1 °F 52.0 °F 54% 30.45 in - Variable 3.5 mph - N/A   Unknown
3:54 PM 66.9 °F 51.1 °F 57% 30.43 in - Calm Calm - N/A   Unknown
4:54 PM 66.9 °F 50.0 °F 54% 30.43 in - Variable 4.6 mph - N/A   Unknown
5:54 PM 64.9 °F 51.1 °F 61% 30.44 in - Variable 4.6 mph - N/A   Unknown
6:54 PM 64.0 °F 52.0 °F 65% 30.43 in - Variable 5.8 mph - N/A   Unknown
7:54 PM 63.0 °F 53.1 °F 70% 30.42 in - Variable 5.8 mph - N/A   Unknown
8:54 PM 62.1 °F 50.0 °F 65% 30.43 in - Variable 3.5 mph - N/A   Unknown
9:54 PM 62.1 °F 50.0 °F 65% 30.43 in - Calm Calm - N/A   Unknown
10:54 PM 61.0 °F 51.1 °F 70% 30.41 in - Variable 3.5 mph - N/A   Unknown
11:54 PM 61.0 °F 50.0 °F 67% 30.40 in - Calm Calm - N/A   Unknown